Location: Newark
(33.4133°N, 82.3847°W)
Time: 21:02:26
(UTC+00:00)

Hubble Space Telescope - Pass Details

Date: 30 January 2020
Orbit: 536 x 540 km, 28.5° (Epoch: 26 February)

Event Time Altitude Azimuth Distance (km) Brightness Sun altitude
Exits shadow 10:20:06 14° 168° (SSE) 1,529 3.2 -26.6°
Maximum altitude 10:20:45 15° 158° (SSE) 1,507 3.3 -26.5°
Drops below altitude 10° 10:23:02 10° 124° (ESE) 1,776 4.2 -26.0°
Sets 10:26:08 0° 99° (E) 2,668 5.7 -25.4°
